This is the latest recevied weather packets stored in our database for station/object K7TSD. If no packets are shown the sender has not sent any weather packets the latest 10 day(s).
| Time | Temp. | Humidity | Pressure | Rain* | Wind** | Luminosity | Snow |
|---|---|---|---|---|---|---|---|
| 1777716076 | 8.89° C | 42% | 1016.4 hPa | 0 mm | - | 0 W/m² | - |
| 1777715774 | 7.78° C | 44% | 1016.3 hPa | 0 mm | - | 0 W/m² | - |
| 1777715471 | 7.22° C | 45% | 1016.1 hPa | 0 mm | - | 0 W/m² | - |
| 1777715168 | 6.67° C | 48% | 1016.3 hPa | 0 mm | - | 0 W/m² | - |
| 1777714866 | 6.67° C | 48% | 1016.5 hPa | 0 mm | - | 0 W/m² | - |
| 1777714564 | 7.22° C | 47% | 1016 hPa | 0 mm | - | 0 W/m² | - |
| 1777714261 | 7.78° C | 46% | 1016.5 hPa | 0 mm | - | 0 W/m² | - |
| 1777713959 | 7.78° C | 45% | 1016.3 hPa | 0 mm | - | 0 W/m² | - |
| 1777713656 | 7.22° C | 46% | 1016.4 hPa | 0 mm | - | 0 W/m² | - |
| 1777713353 | 7.22° C | 47% | 1016.1 hPa | 0 mm | - | 0 W/m² | - |
| 1777713050 | 6.67° C | 47% | 1016.4 hPa | 0 mm | - | 0 W/m² | - |
| 1777712747 | 6.11° C | 48% | 1016.3 hPa | 0 mm | - | 0 W/m² | - |
| 1777712444 | 6.67° C | 48% | 1016.4 hPa | 0 mm | - | 0 W/m² | - |
| 1777712140 | 7.22° C | 47% | 1016.5 hPa | 0 mm | - | 0 W/m² | - |
| 1777711837 | 7.22° C | 46% | 1016.5 hPa | 0 mm | - | 0 W/m² | - |
| 1777711534 | 7.22° C | 46% | 1016.6 hPa | 0 mm | - | 0 W/m² | - |
| 1777711234 | 7.22° C | 46% | 1016.5 hPa | 0 mm | - | 0 W/m² | - |
| 1777710931 | 7.22° C | 45% | 1016.5 hPa | 0 mm | - | 0 W/m² | - |
| 1777710628 | 7.22° C | 46% | 1016.5 hPa | 0 mm | - | 0 W/m² | - |
| 1777710325 | 7.22° C | 45% | 1016.7 hPa | 0 mm | - | 0 W/m² | - |
| 1777710023 | 7.22° C | 45% | 1016.7 hPa | 0 mm | - | 0 W/m² | - |
| 1777709720 | 7.22° C | 46% | 1016.8 hPa | 0 mm | - | 0 W/m² | - |
| 1777709416 | 7.22° C | 45% | 1016.7 hPa | 0 mm | - | 0 W/m² | - |
| 1777709114 | 6.67° C | 46% | 1016.7 hPa | 0 mm | - | 0 W/m² | - |
| 1777708812 | 7.78° C | 45% | 1016.9 hPa | 0 mm | - | 0 W/m² | - |
* Rain latest hour (hover to see other rain measurements)
** Current wind speed in m/s (hover to see current wind gust speed)